Location: Alfords
(31.4624°N, 83.9238°W)
Time: 03:58:46
(UTC+00:00)

Envisat - Pass Details

Date: 25 September 2021
Orbit: 764 x 766 km, 98.2° (Epoch: 15 October)

Event Time Altitude Azimuth Distance (km) Brightness Sun altitude
Rises 10:40:57 0° 11° (NNE) 3,232 6.5 -10.4°
Reaches altitude 10° 10:43:15 10° 12° (NNE) 2,303 5.7 -9.9°
Maximum altitude 10:48:20 88° 289° (WNW) 768 3.0 -8.8°
Drops below altitude 10° 10:53:24 10° 194° (SSW) 2,290 5.3 -7.8°
Sets 10:55:41 0° 194° (SSW) 3,212 6.0 -7.3°
